Regional Weather Roundup
Issued by NWS

Home | Current Version | Previous Version | Text Only | Print | Product List | Glossary On
Versions: 1 2 3 4 5 6 7 8 9 10 11 12 13 14 15 16 17 18 19 20 21 22 23 24 25 26 27 28 29 30 31 32 33 34 35 36 37 38 39 40 41 42 43 44 45 46 47 48 49 50
000
ASUS43 KMKX 181911
RWRWI

WISCONSIN REGIONAL WEATHER ROUNDUP
NATIONAL WEATHER SERVICE MILWAUKEE/SULLIVAN WI
200 PM CDT WED OCT 18 2017

NOTE: "FAIR" INDICATES FEW OR NO CLOUDS BELOW 12,000 FEET WITH NO
SIGNIFICANT WEATHER AND/OR OBSTRUCTIONS TO VISIBILITY.

WIZ001-002-006>008-014>016-023>028-182000-
NORTHWEST WISCONSIN

CITY           SKY/WX    TMP DP  RH WIND       PRES   REMARKS
SUPERIOR ARPT  MOSUNNY   67  46  46 SW16      29.70S
ASHLAND        PTSUNNY   70  46  42 SW17G26   29.68S
HAYWARD        CLOUDY    67  46  47 SW13G22   29.75S
SIREN          MOSUNNY   67  44  43 SW14G21   29.78S
CUMBERLAND     CLOUDY    63  45  51 SW16G23   29.80R
RICE LAKE      CLOUDY    67  46  45 SW15G22   29.81R
CHETEK         CLOUDY    67  49  52 SW9G18    29.79F
LADYSMITH      SUNNY     69  48  47 S15G23    29.78F
EAU CLAIRE     SUNNY     72  47  40 SW15G25   29.79F
MENOMONIE      MOSUNNY   71  49  46 SW15      29.80
NEW RICHMOND   PTSUNNY   67  46  46 W16       29.83R
OSCEOLA        PTSUNNY   67  47  47 SW16      29.85R
$$

WIZ003>005-009-010-017-018-182000-
NORTH CENTRAL WISCONSIN

CITY           SKY/WX    TMP DP  RH WIND       PRES   REMARKS
MANITOWISH WTR MOSUNNY   69  45  41 S16G28    29.73F
ARBOR VITAE    CLOUDY    72  48  43 SW15G26   29.76F
WOODRUFF       CLOUDY    72  48  43 SW15G26   29.76F
RHINELANDER    SUNNY     69  47  45 SW17G28   29.81F
EAGLE RIVER    CLOUDY    69  41  36 SW16G25   29.77F
LAND O LAKES   CLOUDY    69  43  39 SW13G18   29.77F
PHILLIPS       MOSUNNY   70  47  44 SW14G21   29.76F
TOMAHAWK       SUNNY     69  46  44 S5G16     29.80F
MEDFORD        SUNNY     68  48  48 S17       29.83S
MERRILL        SUNNY     70  48  46 SW16G24   29.83F
$$

WIZ029-030-035-036-043>047-182000-
CENTRAL WISCONSIN

CITY           SKY/WX    TMP DP  RH WIND       PRES   REMARKS
WAUSAU         LGT RAIN  68  47  46 SW21G26   29.83F
MOSINEE        MOSUNNY   68  48  49 S16       29.86F
MARSHFIELD     SUNNY     71  47  42 S13G23    29.84F
STEVENS POINT  SUNNY     68  46  43 SW17G26   29.87F
WAUPACA        SUNNY     73  46  38 S16G25    29.89F
WAUTOMA        SUNNY     71  47  42 SW20G30   29.90F
WISC RAPIDS    SUNNY     70  48  45 SW18G26   29.88F
CAMP DOUGLAS   MOSUNNY   72  48  43 S15G21    29.87F
$$

WIZ011>013-019>022-031-037>040-048>050-182000-
NORTHEAST WISCONSIN

CITY           SKY/WX    TMP DP  RH WIND       PRES   REMARKS
ANTIGO         SUNNY     67  49  51 S22G28    29.84F
SHAWANO        SUNNY     72  46  39 S7G23     29.86F
OCONTO         SUNNY     70  47  45 SW14G23   29.87F
STURGEON BAY   SUNNY     65  51  60 S16       29.89F
GREEN BAY      SUNNY     69  50  50 S20       29.90F
MANITOWOC      SUNNY     63  51  65 S17G25    29.95F
APPLETON       SUNNY     70  43  37 SW21G28   29.91F
CLINTONVILLE   SUNNY     72  45  37 SW22      29.87F
OSHKOSH        SUNNY     70  48  45 SW21G30   29.91F
$$

WIZ032>034-041-042-053>061-182000-
SOUTHWEST WISCONSIN

CITY           SKY/WX    TMP DP  RH WIND       PRES   REMARKS
LA CROSSE      SUNNY     72  49  44 S20G26    29.85F
SPARTA         SUNNY     72  48  43 S7G20     29.87F
VIROQUA        SUNNY     71  49  46 S14       29.90F
BOSCOBEL       SUNNY     74  46  36 S14G22    29.92F
PRAIRIE DU CHI SUNNY     73  43  34 S13       29.92F
PLATTEVILLE    SUNNY     70  48  45 S18G26    29.98F
$$

WIZ056-057-062-063-064-067-068-182000-
SOUTH CENTRAL WISCONSIN

CITY           SKY/WX    TMP DP  RH WIND       PRES   REMARKS
REEDSBURG      SUNNY     71  48  45 S16G25    29.92F
BARABOO/DELLS  SUNNY     70  45  41 SW17G28   29.92F
LONE ROCK      SUNNY     71  49  45 S22G29    29.94F
MINERAL POINT  SUNNY     70  46  43 S16G24    29.97F
MADISON        MOSUNNY   70  47  43 S18G26    29.96F
MIDDLETON      SUNNY     71  45  38 SW18G30   29.96F
WATERTOWN      SUNNY     70  46  41 SW17G23   29.98F
MONROE         SUNNY     68  41  37 S20G29    29.99F
JANESVILLE     SUNNY     73  41  31 S21G26    30.01F
$$

WIZ051-052-058>065-066-070>072-182000-
SOUTHEAST WISCONSIN

CITY           SKY/WX    TMP DP  RH WIND       PRES   REMARKS
MILWAUKEE      MOSUNNY   71  46  40 S17G25    30.01F
WAUKESHA       SUNNY     68  43  40 S18G25    30.01F
MILWAUKEE/TIMM SUNNY     70  37  30 SW16G25   30.01F
RACINE         SUNNY     71  44  37 SW17G26   30.04F
BURLINGTON     SUNNY     72  45  37 S24       30.02F
KENOSHA        SUNNY     70  43  37 SW21G30   30.03F
FOND DU LAC    SUNNY     71  45  39 S15G28    29.93F
SHEBOYGAN      SUNNY     71  47  42 SW20G32   29.96F
WEST BEND      SUNNY     70  41  35 SW20G25   29.97F
JUNEAU         SUNNY     69  46  43 S21G30    29.98F
$$

LSZ147-162-182000-
LAKE SUPERIOR

STATION/POSITION TIME  TEMP    WIND        PRES    WAVE
                       AIR SEA DIR/SP/G            HT/PER
                 (UTC) (F)     (DEG/KT/KT) (MB)    (FT/S)
W MID LAKE BUOY  1850   56 53              1002.7F   2/ 5
DEVILS ISLAND    1900   60     240/ 22/ 25 1003.6F
PORT WING        1636          210/ 16/ 26 1005.8
SAXON HARBOR     1840   73     220/ 14/ 21 1003.7F
$$

LMZ867-665-643>646-182000-
LAKE MICHIGAN

STATION/POSITION TIME  TEMP    WIND        PRES    WAVE
                       AIR SEA DIR/SP/G            HT/PER
                 (UTC) (F)     (DEG/KT/KT) (MB)    (FT/S)
S GREEN BAY BUOY 1900   63 58  200/ 17/ 21 1011.5
N MID LAKE BUOY  1850   61 59  190/ 27/ 33 1011.9F   8/ 7
NORTHPORT PIER   1840   61     160/ 10/ 21 1011.9F
KEWAUNEE LAKESHO 1842   58     180/ 19/ 23 1012.9F
SHEBOYGAN LAKESH 1900   57     180/ 22/ 25 1014.4F
PORT WASHINGTON  1840   71     210/ 12/ 17 1016.3F
ATWATER BUOY     1709   60 53  180/ 10/ 14 1017.1F
MILWAUKEE LAKESH 1850   68     210/ 20/ 22   N/A
S MID LAKE BUOY  1850   61 61  180/ 21/ 27 1018.0F   6/ 6
KENOSHA   LAKESH 1900   70     210/ 13/ 24 1016.6
$$

TC  - TEMPERATURE IN CELSIUS
VSB - VISIBILITY IN STATUTE MILES
WCI - WIND CHILL INDEX
HX  - HEAT INDEX




USA.gov is the U.S. government's official web portal to all federal, state and local government web resources and services.